Time,TemperatureF,DewpointF,PressureIn,WindDirection,WindDirectionDegrees,WindSpeedMPH,WindSpeedGustMPH,Humidity,HourlyPrecipIn,Conditions,Clouds,dailyrainin,SoftwareType,DateUTC
2013-10-29 00:12:00,29.3,21.4,30.13,North,0,0.4,0.7,72,0.00,,,0.00,WUHU216HW,2013-10-29 04:12:00,
2013-10-29 00:27:00,29.0,21.4,30.13,North,0,0.0,0.0,73,0.00,,,0.00,WUHU216HW,2013-10-29 04:27:00,
2013-10-29 00:42:00,28.8,21.3,30.13,North,0,0.2,0.2,73,0.00,,,0.00,WUHU216HW,2013-10-29 04:42:00,
2013-10-29 00:57:00,28.4,20.9,30.13,North,0,0.0,0.0,73,0.00,,,0.00,WUHU216HW,2013-10-29 04:57:00,
2013-10-29 01:12:00,28.3,21.1,30.13,North,0,0.0,0.0,74,0.00,,,0.00,WUHU216HW,2013-10-29 05:12:00,
2013-10-29 01:27:00,27.7,20.8,30.14,North,0,0.0,0.0,75,0.00,,,0.00,WUHU216HW,2013-10-29 05:27:00,
2013-10-29 01:42:00,27.5,20.6,30.14,North,0,0.0,0.0,75,0.00,,,0.00,WUHU216HW,2013-10-29 05:42:00,
2013-10-29 01:57:00,27.2,20.3,30.14,WNW,285,0.9,1.8,75,0.00,,,0.00,WUHU216HW,2013-10-29 05:57:00,
2013-10-29 02:12:00,27.0,20.1,30.14,WNW,297,0.5,1.1,75,0.00,,,0.00,WUHU216HW,2013-10-29 06:12:00,
2013-10-29 02:27:00,27.0,20.7,30.14,WNW,291,1.2,1.8,77,0.00,,,0.00,WUHU216HW,2013-10-29 06:27:00,
2013-10-29 02:42:00,26.8,20.5,30.14,WNW,287,0.7,1.8,77,0.00,,,0.00,WUHU216HW,2013-10-29 06:42:00,
2013-10-29 02:57:00,26.6,20.4,30.14,North,0,0.0,0.0,77,0.00,,,0.00,WUHU216HW,2013-10-29 06:57:00,
2013-10-29 03:12:00,26.3,20.4,30.15,NNW,337,0.7,1.1,78,0.00,,,0.00,WUHU216HW,2013-10-29 07:12:00,
2013-10-29 03:27:00,25.9,20.0,30.15,NW,304,0.7,1.3,78,0.00,,,0.00,WUHU216HW,2013-10-29 07:27:00,
2013-10-29 03:42:00,25.9,20.0,30.15,NNW,342,0.6,1.1,78,0.00,,,0.00,WUHU216HW,2013-10-29 07:42:00,
2013-10-29 03:57:00,25.6,19.6,30.16,North,0,0.4,0.4,78,0.00,,,0.00,WUHU216HW,2013-10-29 07:57:00,
2013-10-29 04:12:00,25.6,20.0,30.16,North,0,0.0,0.0,79,0.00,,,0.00,WUHU216HW,2013-10-29 08:12:00,
2013-10-29 04:27:00,25.2,19.6,30.16,NNE,14,0.6,1.3,79,0.00,,,0.00,WUHU216HW,2013-10-29 08:27:00,
2013-10-29 04:42:00,25.0,19.4,30.17,WNW,299,0.7,1.1,79,0.00,,,0.00,WUHU216HW,2013-10-29 08:42:00,
2013-10-29 04:57:00,24.8,19.3,30.17,NE,45,0.4,0.4,79,0.00,,,0.00,WUHU216HW,2013-10-29 08:57:00,
2013-10-29 05:12:00,24.7,19.1,30.18,NW,319,0.6,0.9,79,0.00,,,0.00,WUHU216HW,2013-10-29 09:12:00,
2013-10-29 05:27:00,24.5,19.3,30.18,WNW,299,1.1,1.8,80,0.00,,,0.00,WUHU216HW,2013-10-29 09:27:00,
2013-10-29 05:42:00,24.3,19.1,30.18,West,277,0.8,1.8,80,0.00,,,0.00,WUHU216HW,2013-10-29 09:42:00,
2013-10-29 05:57:00,24.1,18.9,30.18,North,356,0.4,0.9,80,0.00,,,0.00,WUHU216HW,2013-10-29 09:57:00,
2013-10-29 06:12:00,23.9,18.7,30.18,NW,306,0.7,1.1,80,0.00,,,0.00,WUHU216HW,2013-10-29 10:12:00,
2013-10-29 06:27:00,23.9,18.7,30.18,West,270,0.8,1.1,80,0.00,,,0.00,WUHU216HW,2013-10-29 10:27:00,
2013-10-29 06:42:00,23.9,18.7,30.19,North,0,0.0,0.0,80,0.00,,,0.00,WUHU216HW,2013-10-29 10:42:00,
2013-10-29 06:57:00,23.8,18.5,30.19,North,0,0.0,0.0,80,0.00,,,0.00,WUHU216HW,2013-10-29 10:57:00,
2013-10-29 07:12:00,23.6,18.4,30.19,North,0,0.0,0.0,80,0.00,,,0.00,WUHU216HW,2013-10-29 11:12:00,
2013-10-29 07:27:00,23.4,18.5,30.20,North,0,0.0,0.0,81,0.00,,,0.00,WUHU216HW,2013-10-29 11:27:00,
2013-10-29 07:42:00,23.4,18.5,30.20,North,0,0.0,0.0,81,0.00,,,0.00,WUHU216HW,2013-10-29 11:42:00,
2013-10-29 07:57:00,23.4,18.5,30.20,North,0,0.0,0.0,81,0.00,,,0.00,WUHU216HW,2013-10-29 11:57:00,
2013-10-29 08:12:00,23.4,18.5,30.20,North,0,0.0,0.0,81,0.00,,,0.00,WUHU216HW,2013-10-29 12:12:00,
2013-10-29 08:27:00,23.4,18.7,30.20,North,0,0.0,0.0,82,0.00,,,0.00,WUHU216HW,2013-10-29 12:27:00,
2013-10-29 08:42:00,25.4,20.7,30.20,North,0,0.0,0.0,82,0.00,,,0.00,WUHU216HW,2013-10-29 12:42:00,
2013-10-29 08:57:00,28.1,23.2,30.21,SSE,158,0.5,1.1,82,0.00,,,0.00,WUHU216HW,2013-10-29 12:57:00,
2013-10-29 09:12:00,30.4,24.7,30.21,SSE,164,0.9,1.8,79,0.00,,,0.00,WUHU216HW,2013-10-29 13:12:00,
2013-10-29 09:27:00,32.8,26.6,30.21,SSE,161,0.8,1.8,78,0.00,,,0.00,WUHU216HW,2013-10-29 13:27:00,
2013-10-29 09:42:00,34.9,27.1,30.21,SSE,150,0.7,1.3,73,0.00,,,0.00,WUHU216HW,2013-10-29 13:42:00,
2013-10-29 09:57:00,36.5,27.0,30.21,SE,140,1.1,2.0,68,0.00,,,0.00,WUHU216HW,2013-10-29 13:57:00,
2013-10-29 10:12:00,38.3,27.5,30.20,East,86,1.2,2.5,65,0.00,,,0.00,WUHU216HW,2013-10-29 14:12:00,
2013-10-29 10:27:00,39.6,28.0,30.20,SE,140,1.1,2.5,63,0.00,,,0.00,WUHU216HW,2013-10-29 14:27:00,
2013-10-29 10:42:00,40.5,27.3,30.20,SE,145,1.5,3.4,59,0.00,,,0.00,WUHU216HW,2013-10-29 14:42:00,
2013-10-29 10:57:00,40.9,27.6,30.19,SSE,159,1.9,3.4,59,0.00,,,0.00,WUHU216HW,2013-10-29 14:57:00,
2013-10-29 11:12:00,41.8,27.5,30.19,ESE,115,1.7,3.8,57,0.00,,,0.00,WUHU216HW,2013-10-29 15:12:00,
2013-10-29 11:27:00,41.9,26.5,30.19,SSE,166,1.7,3.1,54,0.00,,,0.00,WUHU216HW,2013-10-29 15:27:00,
2013-10-29 11:42:00,42.7,26.3,30.18,South,176,1.8,4.0,52,0.00,,,0.00,WUHU216HW,2013-10-29 15:42:00,
2013-10-29 11:57:00,43.6,26.6,30.18,SSE,153,1.8,4.0,51,0.00,,,0.00,WUHU216HW,2013-10-29 15:57:00,
2013-10-29 12:12:00,44.5,25.9,30.18,South,173,1.7,5.1,48,0.00,,,0.00,WUHU216HW,2013-10-29 16:12:00,
2013-10-29 12:27:00,45.4,25.7,30.17,ESE,118,2.0,4.7,46,0.00,,,0.00,WUHU216HW,2013-10-29 16:27:00,
2013-10-29 12:42:00,45.9,26.2,30.16,SE,127,2.2,5.8,46,0.00,,,0.00,WUHU216HW,2013-10-29 16:42:00,
2013-10-29 12:57:00,46.8,25.9,30.15,SSE,156,2.2,4.5,44,0.00,,,0.00,WUHU216HW,2013-10-29 16:57:00,
2013-10-29 13:12:00,46.8,24.9,30.15,South,190,1.8,4.0,42,0.00,,,0.00,WUHU216HW,2013-10-29 17:12:00,
2013-10-29 13:27:00,47.2,25.7,30.14,SSE,161,1.8,4.7,43,0.00,,,0.00,WUHU216HW,2013-10-29 17:27:00,
2013-10-29 13:42:00,48.4,25.8,30.14,SE,136,2.0,4.0,41,0.00,,,0.00,WUHU216HW,2013-10-29 17:42:00,
2013-10-29 13:57:00,48.4,24.5,30.13,South,175,2.2,4.3,39,0.00,,,0.00,WUHU216HW,2013-10-29 17:57:00,
2013-10-29 14:12:00,48.6,24.0,30.13,South,175,2.4,4.7,38,0.00,,,0.00,WUHU216HW,2013-10-29 18:12:00,
2013-10-29 14:27:00,48.1,24.2,30.13,SSE,154,2.1,4.7,39,0.00,,,0.00,WUHU216HW,2013-10-29 18:27:00,
2013-10-29 14:42:00,47.9,24.0,30.13,South,183,2.0,4.0,39,0.00,,,0.00,WUHU216HW,2013-10-29 18:42:00,
2013-10-29 14:58:00,47.9,24.7,30.12,SSW,204,1.7,4.0,40,0.00,,,0.00,WUHU216HW,2013-10-29 18:58:00,
2013-10-29 15:13:00,47.3,24.2,30.12,SE,143,1.6,4.7,40,0.00,,,0.00,WUHU216HW,2013-10-29 19:13:00,
2013-10-29 15:28:00,47.0,23.9,30.13,SSE,156,1.7,3.6,40,0.00,,,0.00,WUHU216HW,2013-10-29 19:28:00,
2013-10-29 15:43:00,46.6,24.7,30.13,South,178,1.7,3.4,42,0.00,,,0.00,WUHU216HW,2013-10-29 19:43:00,
2013-10-29 15:58:00,46.4,23.9,30.13,SSW,208,1.3,3.6,41,0.00,,,0.00,WUHU216HW,2013-10-29 19:58:00,
2013-10-29 16:13:00,46.1,24.1,30.13,South,190,1.2,3.1,42,0.00,,,0.00,WUHU216HW,2013-10-29 20:13:00,
2013-10-29 16:28:00,45.5,23.7,30.13,SSW,192,1.6,3.8,42,0.00,,,0.00,WUHU216HW,2013-10-29 20:28:00,
2013-10-29 16:43:00,45.0,22.7,30.13,SW,227,1.8,4.5,41,0.00,,,0.00,WUHU216HW,2013-10-29 20:43:00,
2013-10-29 16:58:00,44.5,21.6,30.12,SSW,206,1.5,3.4,40,0.00,,,0.00,WUHU216HW,2013-10-29 20:58:00,
2013-10-29 17:13:00,43.4,22.8,30.12,WSW,253,1.2,3.1,44,0.00,,,0.00,WUHU216HW,2013-10-29 21:13:00,
2013-10-29 17:28:00,42.5,22.5,30.12,WSW,255,1.6,2.9,45,0.00,,,0.00,WUHU216HW,2013-10-29 21:28:00,
2013-10-29 17:43:00,41.2,22.4,30.12,WNW,283,1.7,2.5,47,0.00,,,0.00,WUHU216HW,2013-10-29 21:43:00,
2013-10-29 17:58:00,40.3,22.6,30.13,WNW,291,1.3,1.8,49,0.00,,,0.00,WUHU216HW,2013-10-29 21:58:00,
2013-10-29 18:13:00,39.2,22.1,30.13,NW,310,0.8,1.8,50,0.00,,,0.00,WUHU216HW,2013-10-29 22:13:00,
2013-10-29 18:28:00,38.3,21.3,30.14,North,0,0.0,0.0,50,0.00,,,0.00,WUHU216HW,2013-10-29 22:28:00,
2013-10-29 18:43:00,37.1,21.1,30.15,NNW,338,0.2,0.2,52,0.00,,,0.00,WUHU216HW,2013-10-29 22:43:00,
2013-10-29 18:58:00,36.4,20.9,30.15,North,0,0.0,0.0,53,0.00,,,0.00,WUHU216HW,2013-10-29 22:58:00,
2013-10-29 19:13:00,35.5,20.9,30.16,NW,315,0.6,1.1,55,0.00,,,0.00,WUHU216HW,2013-10-29 23:13:00,
2013-10-29 19:28:00,34.7,20.6,30.16,NNW,338,0.4,0.4,56,0.00,,,0.00,WUHU216HW,2013-10-29 23:28:00,
2013-10-29 19:43:00,34.0,19.9,30.15,North,0,0.0,0.0,56,0.00,,,0.00,WUHU216HW,2013-10-29 23:43:00,
2013-10-29 19:58:00,33.3,19.6,30.15,North,0,0.0,0.0,57,0.00,,,0.00,WUHU216HW,2013-10-29 23:58:00,
2013-10-29 20:13:00,32.8,19.6,30.15,NNW,338,0.2,0.2,58,0.00,,,0.00,WUHU216HW,2013-10-30 00:13:00,
2013-10-29 20:28:00,32.4,20.2,30.16,NNW,338,0.2,0.2,60,0.00,,,0.00,WUHU216HW,2013-10-30 00:28:00,
2013-10-29 20:43:00,31.9,19.6,30.16,NNW,338,0.3,0.4,60,0.00,,,0.00,WUHU216HW,2013-10-30 00:43:00,
2013-10-29 20:58:00,31.5,19.6,30.16,North,0,0.0,0.0,61,0.00,,,0.00,WUHU216HW,2013-10-30 00:58:00,
2013-10-29 21:13:00,31.1,19.3,30.15,North,0,0.0,0.0,61,0.00,,,0.00,WUHU216HW,2013-10-30 01:13:00,
2013-10-29 21:28:00,30.8,19.3,30.15,North,0,0.0,0.0,62,0.00,,,0.00,WUHU216HW,2013-10-30 01:28:00,
2013-10-29 21:43:00,30.4,19.3,30.15,North,0,0.0,0.0,63,0.00,,,0.00,WUHU216HW,2013-10-30 01:43:00,
2013-10-29 21:58:00,30.2,19.1,30.14,NNW,338,0.2,0.2,63,0.00,,,0.00,WUHU216HW,2013-10-30 01:58:00,
2013-10-29 22:13:00,29.9,18.7,30.14,North,0,0.0,0.0,63,0.00,,,0.00,WUHU216HW,2013-10-30 02:13:00,
2013-10-29 22:28:00,29.3,18.6,30.13,NNW,338,0.4,0.7,64,0.00,,,0.00,WUHU216HW,2013-10-30 02:28:00,
2013-10-29 22:43:00,29.2,18.5,30.13,NNW,338,0.5,0.9,64,0.00,,,0.00,WUHU216HW,2013-10-30 02:43:00,
2013-10-29 22:58:00,29.0,18.6,30.13,North,0,0.0,0.0,65,0.00,,,0.00,WUHU216HW,2013-10-30 02:58:00,
2013-10-29 23:13:00,28.6,18.7,30.13,NNW,338,0.6,0.9,66,0.00,,,0.00,WUHU216HW,2013-10-30 03:13:00,
2013-10-29 23:28:00,28.4,18.5,30.13,NNW,338,0.2,0.2,66,0.00,,,0.00,WUHU216HW,2013-10-30 03:28:00,
2013-10-29 23:43:00,28.1,18.2,30.13,North,0,0.0,0.0,66,0.00,,,0.00,WUHU216HW,2013-10-30 03:43:00,
2013-10-29 23:58:00,27.9,18.4,30.12,WNW,282,0.8,1.1,67,0.00,,,0.00,WUHU216HW,2013-10-30 03:58:00,